[ hide orbit diagram ]
For accurate long-term ephemerides, please instead use our Horizons system.This orbit viewer was implemented using two-body methods, and hence should not be used for determining accurate long-term trajectories (over several years or decades) or planetary encounter circumstances.
Orbital Elements at Epoch 2459000.5 (2020-May-31.0) TDB
Reference: JPL 8 (heliocentric ecliptic J2000)
Element | Value | Uncertainty (1-sigma) | Units |
e | .2634391084499191 | 1.0108e-07 | |
a | 2.868386206960042 | 2.7609e-08 | au |
q | 2.112741101908443 | 2.9351e-07 | au |
i | 7.309112110924405 | 7.8864e-06 | deg |
node | 107.8491574823151 | 5.2292e-05 | deg |
peri | 326.9707194441869 | 5.5719e-05 | deg |
M | 256.2364771500413 | 1.6002e-05 | deg |
tp | 2459511.942803755890 (2021-Oct-24.44280376) | 8.272e-05 | TDB |
period | 1774.413631063353 4.86 | 2.5619e-05 7.014e-08 | d yr |
n | .2028839238482758 | 2.9292e-09 | deg/d |
Q | 3.62403131201164 | 3.4883e-08 | au |
|
| | Orbit Determination Parameters
Additional Information
|
[ show covariance matrix ]
Physical Parameter Table
Parameter |
Symbol |
Value |
Units |
Sigma |
Reference |
Notes |
absolute magnitude |
H |
16.6 |
|
n/a |
MPO446465 |
|
|
308873 (2006 SO60) Discovered 2006-Sep-18 by CSS at Catalina |
Reference: 20111210/Numbers.arc | Last Updated: 2011-12-12 |
|
[ hide close-approach data ]
Close-Approach Data ...sorted by Date/Time (TDB)
|
Date/Time (TDB) |
Time Uncertainty (days_HH:MM) |
Body |
Nominal Distance (au) |
Minimum Distance (au) |
Maximum Distance (au) |
V-relative (km/s) |
V-infinity (km/s) |
JD (TDB) |
Time Uncertainty (minutes) |
Semi-major axis (km) |
Semi-minor axis (km) |
range-LOV angle (deg) |
N-sigma |
BP |
Orbit Ref. |
Reference |
Modified |
1912-Oct-16 15:50 |
00:04 |
Jupiter |
1.68474571159436 |
1.68474473302626 |
1.68474669017673 |
1.38498125077147 |
0.955328921212083 |
2419692.159997187 |
3.93917289339635 |
744.491597817705 |
470.116514772034 |
-47.770672593214 |
706267.012272661 |
T |
8 |
CATAB v2.0f-lin.ifort 2020-Nov-11 18:59:43 |
2020-Nov-11 18:59 |
1937-Jul-15 05:14 |
00:03 |
Jupiter |
1.80202966484017 |
1.80202761303306 |
1.80203171667913 |
1.9361899495988 |
1.67593419147386 |
2428729.717923953 |
3.13715724476208 |
452.444765852023 |
80.7920967623869 |
-88.4037891460234 |
938665.071990089 |
T |
8 |
CATAB v2.0f-lin.ifort 2020-Nov-11 18:59:43 |
2020-Nov-11 18:59 |
1994-Oct-19 00:38 |
00:01 |
Jupiter |
1.90918591464276 |
1.90918497420593 |
1.90918685509012 |
1.30579025018951 |
0.90430935697904 |
2449644.526170246 |
1.09319121866059 |
538.434829656579 |
454.127948376072 |
-79.683578010398 |
882882.39932901 |
T |
8 |
CATAB v2.0f-lin.ifort 2020-Nov-11 18:59:43 |
2020-Nov-11 18:59 |
2019-Jul-26 22:53 |
< 00:01 |
Jupiter |
1.682022103144 |
1.68202119429799 |
1.68202301201746 |
1.41965441013465 |
1.00412685584021 |
2458691.453596021 |
0.52258255431407 |
508.008823978585 |
432.013974203293 |
-55.3826554774691 |
729042.945473494 |
T |
8 |
CATAB v2.0f-lin.ifort 2020-Nov-11 18:59:43 |
2020-Nov-11 18:59 |
2044-Apr-21 23:50 |
00:01 |
Jupiter |
1.78357142341539 |
1.78357013231186 |
1.78357271452865 |
1.88839999268578 |
1.6174824716031 |
2467727.493216109 |
1.36831942059566 |
274.130303302278 |
92.3947100151933 |
-88.0368246395279 |
929917.477690929 |
T |
8 |
CATAB v2.0f-lin.ifort 2020-Nov-11 18:59:43 |
2020-Nov-11 18:59 |
2101-Jul-28 16:44 |
00:04 |
Jupiter |
1.92275797480745 |
1.92275563949203 |
1.92276031021272 |
1.38694354449799 |
1.02105967229413 |
2488643.197527868 |
3.63234931785389 |
914.262055195427 |
313.33556268834 |
-83.4098230011628 |
874420.428477474 |
T |
8 |
CATAB v2.0f-lin.ifort 2020-Nov-11 18:59:43 |
2020-Nov-11 18:59 |
2126-May-05 10:28 |
00:04 |
Jupiter |
1.68250506749222 |
1.68250385041883 |
1.68250628456638 |
1.45377498912968 |
1.05195195707234 |
2497689.935807817 |
4.26035421480194 |
586.075381333568 |
392.559032724748 |
-63.5340911955238 |
743809.217792885 |
T |
8 |
CATAB v2.0f-lin.ifort 2020-Nov-11 18:59:43 |
2020-Nov-11 18:59 |
2151-Jan-29 18:55 |
00:06 |
Jupiter |
1.75858797040623 |
1.75858538007888 |
1.75859056084514 |
1.83337505687931 |
1.54853662171227 |
2506725.288047248 |
5.54099155932864 |
809.08467712158 |
108.584083829247 |
-87.8345317321021 |
911795.022274564 |
T |
8 |
CATAB v2.0f-lin.ifort 2020-Nov-11 18:59:43 |
2020-Nov-11 18:59 |
|
|